[[{"header":{"parameterUnit":"m.s-1","parameterCategory":1,"la1":30.2991,"la2":30.254,"lo1":-89.0895,"lo2":-89.0444,"dy":0.0017,"dx":0.0017,"nx":28,"ny":28,"refTime":"2025-02-26T03:00:00:Z","depth":0,"parameterNumber":2,"parameterNumberName":"U-component_of_WINDS"},"data":[0,0,0,0,0,0,0,0,0,0,0,0,0,0,0,0,0,0,0,0,0,0,0,0,0,0,0,0,0,0,0,0,0,0,0,0,0,0,0,0,0,0,0,0,0,0,0,0,0,0,0,0,0,0,0,0,0,0,-0.7092,-0.7091,0,-0.7055,-0.7054,-0.7054,-0.7014,-0.7013,-0.7013,-0.7012,-0.6974,-0.6973,-0.6973,0,0,0,0,0,0,0,0,0,0,0,0,0,-0.7129,-0.7129,-0.7092,-0.7091,-0.7091,-0.7055,-0.7054,-0.7054,-0.7014,-0.7013,-0.7012,-0.7012,-0.6974,-0.6973,-0.6973,0,0,0,0,0,0,0,0,0,0,0,0,0,-0.7105,-0.7129,-0.7092,-0.7067,-0.7064,-0.7055,-0.7054,-0.7054,-0.7014,-0.7013,-0.7012,-0.7011,-0.6974,-0.6973,-0.6973,-0.6985,0,0,-0.697,-0.697,0,0,0,0,0,0,0,0,-0.7106,-0.7103,-0.7071,-0.7068,-0.7065,-0.7038,-0.7053,-0.7031,-0.7014,-0.7033,-0.7012,-0.7011,-0.6996,-0.6993,-0.6988,-0.6983,-0.6982,-0.697,-0.697,-0.697,-0.6969,0,0,0,0,0,0,0,-0.7108,-0.7105,-0.7077,-0.707,-0.7067,-0.7057,-0.7053,-0.7049,-0.702,-0.7031,-0.7028,-0.7024,-0.6994,-0.6989,-0.6987,-0.6981,-0.697,-0.697,-0.6969,-0.6969,-0.6986,-0.6986,0,0,0,0,0,0,-0.7113,-0.7106,-0.7078,-0.7076,-0.7084,-0.7058,-0.7053,-0.7048,-0.702,-0.7014,-0.7025,-0.7023,-0.6991,-0.6988,-0.6985,-0.6998,-0.697,-0.6969,-0.6968,-0.6985,-0.6986,-0.6987,0,0,0,0,0,0,-0.7114,-0.7111,-0.708,-0.709,-0.7086,-0.7058,-0.7053,-0.7047,-0.7042,-0.7015,-0.701,-0.7025,-0.699,-0.6986,-0.6986,-0.6996,-0.6969,-0.6968,-0.6984,-0.6985,-0.6986,-0.7024,0,0,0,0,0,0,-0.7115,-0.7112,-0.7116,-0.7091,-0.7085,-0.7081,-0.7053,-0.7047,-0.7041,-0.7037,-0.7013,-0.7009,-0.6989,-0.6987,-0.6985,-0.6995,-0.6967,-0.6983,-0.6984,-0.6986,-0.7022,-0.7027,-0.7031,0,0,0,0,0,-0.7117,-0.7128,-0.7116,-0.7113,-0.709,-0.7081,-0.7078,-0.7055,-0.7042,-0.7046,-0.7029,-0.7009,-0.6996,-0.6987,-0.6985,-0.6994,-0.6982,-0.6984,-0.6986,-0.702,-0.7026,-0.7031,0,0,0,0,0,0,-0.7155,-0.7124,-0.7111,-0.7114,-0.7101,-0.7074,-0.7079,-0.7062,-0.7052,-0.7049,-0.7021,-0.7016,-0.7018,-0.7006,-0.6997,-0.7006,-0.6986,-0.6988,-0.7013,-0.7018,-0.7023,-0.7025,-0.6967,0,0,0,0,0,-0.7163,-0.7159,-0.7132,-0.7138,-0.7132,-0.7107,-0.7102,-0.7086,-0.7071,-0.7065,-0.7047,-0.7033,-0.7026,-0.7022,-0.7013,-0.702,-0.7015,-0.7026,-0.7031,-0.7034,-0.7036,-0.7039,-0.7044,-0.6993,-0.6993,-0.6993,0,0,-0.7181,-0.7164,-0.7163,-0.7145,-0.7133,-0.7129,-0.7102,-0.7099,-0.7096,-0.7064,-0.7062,-0.7049,-0.7032,-0.7036,-0.7036,-0.7026,-0.7049,-0.7037,-0.704,-0.7039,-0.7041,-0.7046,-0.705,-0.6995,-0.6994,-0.6994,0,0,-0.7211,-0.7198,-0.7201,-0.719,-0.7171,-0.7155,-0.7156,-0.7133,-0.7123,-0.7121,-0.7097,-0.7093,-0.7081,-0.707,-0.7063,-0.7091,-0.7072,-0.7089,-0.7112,-0.7115,-0.7119,-0.7122,-0.7132,-0.7136,-0.7091,-0.7091,-0.7091,0,-0.7236,-0.7228,-0.7205,-0.7203,-0.7196,-0.7168,-0.7171,-0.7161,-0.7141,-0.7137,-0.7126,-0.7111,-0.7097,-0.7098,-0.7105,-0.71,-0.71,-0.7091,-0.7121,-0.7124,-0.7126,-0.7135,-0.7139,-0.7093,-0.7093,-0.7092,-0.7092,0,-0.7259,-0.7255,-0.726,-0.7241,-0.7235,-0.7236,-0.7213,-0.7209,-0.7194,-0.7179,-0.7178,-0.7161,-0.7149,-0.7148,-0.7133,-0.7147,-0.7141,-0.7126,-0.7105,-0.7134,-0.7142,-0.7145,-0.7096,-0.7095,-0.7094,-0.7094,0,0,-0.731,-0.728,-0.7282,-0.7274,-0.7253,-0.7249,-0.7249,-0.7238,-0.7235,-0.7223,-0.7222,-0.7214,-0.72,-0.7192,-0.7175,-0.7179,-0.7202,-0.7163,-0.7162,-0.717,-0.7216,-0.7227,-0.7231,-0.719,-0.7191,-0.7191,-0.7217,0,-0.7336,-0.7334,-0.7313,-0.7317,-0.7313,-0.7287,-0.7288,-0.7275,-0.7261,-0.7256,-0.7241,-0.7235,-0.7217,-0.7212,-0.7215,-0.7198,-0.721,-0.7196,-0.7189,-0.7189,-0.7193,-0.7235,-0.7246,-0.7272,-0.722,-0.7221,-0.7221,0,-0.7365,-0.7355,-0.7359,-0.7339,-0.7336,-0.7336,-0.7325,-0.732,-0.7306,-0.7296,-0.7288,-0.7269,-0.7268,-0.7251,-0.7249,-0.724,-0.7236,-0.7228,-0.7228,-0.7226,-0.7206,-0.7233,-0.7279,-0.7283,-0.7226,-0.7225,-0.7225,0,-0.7402,-0.7389,-0.739,-0.7384,-0.736,-0.7361,-0.7351,-0.7336,-0.7331,-0.7321,-0.7317,-0.7307,-0.7302,-0.7295,-0.7275,-0.7264,-0.7276,-0.7256,-0.7267,-0.7268,-0.7269,-0.7269,-0.7315,-0.7269,-0.7269,-0.7269,-0.7269,0,-0.7432,-0.7435,-0.7406,-0.7406,-0.7409,-0.7386,-0.739,-0.7378,-0.7365,-0.7362,-0.734,-0.7338,-0.7312,-0.7308,-0.7293,-0.7294,-0.7292,-0.7283,-0.7279,-0.7285,-0.7286,-0.7281,-0.7278,-0.727,-0.727,-0.7269,-0.7269,0,-0.7472,-0.7453,-0.7452,-0.743,-0.7425,-0.7428,-0.7409,-0.7409,-0.7395,-0.7392,-0.739,-0.7368,-0.7362,-0.7341,-0.733,-0.732,-0.7325,-0.7318,-0.733,-0.7327,-0.7339,-0.7338,-0.7382,-0.7387,-0.7339,-0.734,-0.734,0,-0.7492,-0.7494,-0.7473,-0.747,-0.7461,-0.7456,-0.7451,-0.7429,-0.7425,-0.7409,-0.7411,-0.7403,-0.7395,-0.7387,-0.737,-0.7361,-0.7353,-0.7369,-0.7351,-0.7357,-0.7352,-0.7352,-0.7352,-0.7372,-0.7373,-0.7373,-0.7374,0,-0.753,-0.752,-0.7514,-0.7504,-0.7499,-0.749,-0.748,-0.7479,-0.7454,-0.7451,-0.7444,-0.7439,-0.7428,-0.742,-0.7409,-0.7399,-0.7383,-0.738,-0.7382,-0.7387,-0.7394,-0.739,-0.734,-0.7378,-0.7378,-0.7378,-0.7377,-0.7377,-0.756,-0.756,-0.7546,-0.7539,-0.753,-0.7521,-0.752,-0.7506,-0.75,-0.749,-0.7477,-0.7473,-0.7459,-0.7443,-0.7434,-0.7431,-0.7421,-0.7424,-0.7425,-0.7426,-0.7428,-0.7396,-0.7429,-0.7428,-0.7428,-0.7428,-0.7428,0,-0.7595,-0.7585,-0.758,-0.7567,-0.7562,-0.7547,-0.7536,-0.7533,-0.7529,-0.7518,-0.7511,-0.7504,-0.7497,-0.7481,-0.7472,-0.7472,-0.7464,-0.7471,-0.747,-0.7468,-0.7437,-0.7436,-0.7477,-0.7477,-0.7477,-0.7477,-0.7477,-0.7477,-0.7613,-0.7614,-0.7603,-0.7599,-0.7588,-0.7583,-0.7578,-0.757,-0.7562,-0.7555,-0.7549,-0.7538,-0.7525,-0.7516,-0.7509,-0.7504,-0.7502,-0.7511,-0.7503,-0.7475,-0.747,-0.7465,-0.7464,-0.7511,-0.7511,-0.7534,-0.7534,-0.7535]},{"header":{"parameterUnit":"m.s-1","parameterCategory":1,"la1":30.2991,"la2":30.254,"lo1":-89.0895,"lo2":-89.0444,"dy":0.0017,"dx":0.0017,"nx":28,"ny":28,"refTime":"2025-02-26T03:00:00:Z","depth":0,"parameterNumber":3,"parameterNumberName":"V-component_of_WINDS"},"data":[0,0,0,0,0,0,0,0,0,0,0,0,0,0,0,0,0,0,0,0,0,0,0,0,0,0,0,0,0,0,0,0,0,0,0,0,0,0,0,0,0,0,0,0,0,0,0,0,0,0,0,0,0,0,0,0,0,0,1.6758,1.6758,0,1.6687,1.6687,1.6686,1.6596,1.6594,1.6593,1.6591,1.6518,1.6518,1.6517,0,0,0,0,0,0,0,0,0,0,0,0,0,1.6816,1.6816,1.6759,1.6758,1.6757,1.6687,1.6686,1.6686,1.6596,1.6594,1.6592,1.6591,1.6518,1.6518,1.6517,0,0,0,0,0,0,0,0,0,0,0,0,0,1.6773,1.6815,1.6759,1.6704,1.6698,1.6688,1.6686,1.6685,1.6596,1.6594,1.6592,1.659,1.6519,1.6518,1.6517,1.6555,0,0,1.6514,1.6514,0,0,0,0,0,0,0,0,1.6775,1.6771,1.6713,1.6707,1.6701,1.6648,1.668,1.6641,1.6597,1.6635,1.6591,1.6589,1.6563,1.6558,1.655,1.6551,1.6548,1.6514,1.6513,1.6513,1.6513,0,0,0,0,0,0,0,1.6779,1.6773,1.673,1.6712,1.6705,1.6682,1.6674,1.6672,1.6612,1.6631,1.6625,1.6617,1.656,1.6551,1.6547,1.6547,1.6514,1.6513,1.6513,1.6512,1.6577,1.6579,0,0,0,0,0,0,1.679,1.6776,1.6733,1.6728,1.6734,1.6683,1.6673,1.6667,1.6612,1.6601,1.6619,1.6614,1.6554,1.6549,1.6545,1.6586,1.6513,1.6512,1.6512,1.6574,1.6577,1.658,0,0,0,0,0,0,1.6791,1.6787,1.6735,1.675,1.6742,1.6684,1.6678,1.6667,1.6658,1.6603,1.6592,1.6622,1.6552,1.6546,1.6553,1.6582,1.6512,1.6511,1.6572,1.6575,1.6578,1.667,0,0,0,0,0,0,1.6793,1.6788,1.6802,1.6751,1.6742,1.6746,1.668,1.6667,1.6657,1.6649,1.6602,1.6592,1.6549,1.6555,1.6552,1.658,1.651,1.6569,1.6573,1.6577,1.6664,1.6676,1.6686,0,0,0,0,0,1.6796,1.683,1.6803,1.6798,1.6758,1.6748,1.6742,1.6692,1.666,1.6673,1.6638,1.6594,1.6579,1.6556,1.6553,1.6581,1.6567,1.6572,1.6577,1.6659,1.6674,1.6686,0,0,0,0,0,0,1.6885,1.6822,1.6792,1.6811,1.6785,1.6732,1.6748,1.6709,1.6692,1.6685,1.6624,1.6614,1.6629,1.6605,1.6581,1.6615,1.6567,1.6571,1.663,1.6644,1.6655,1.6661,1.651,0,0,0,0,0,1.6907,1.6904,1.6849,1.6871,1.686,1.6807,1.68,1.6764,1.6735,1.6724,1.6688,1.6662,1.6651,1.6646,1.6633,1.6659,1.6648,1.6677,1.6688,1.6697,1.6702,1.6716,1.6728,1.6596,1.6596,1.6596,0,0,1.6953,1.6918,1.692,1.6888,1.6864,1.6863,1.6798,1.6799,1.6797,1.6723,1.6729,1.6702,1.6668,1.6686,1.6692,1.6666,1.6736,1.6704,1.6711,1.6711,1.6722,1.6735,1.6746,1.66,1.6599,1.6599,0,0,1.7035,1.7008,1.7024,1.7001,1.6965,1.693,1.6934,1.6886,1.6866,1.687,1.6816,1.6812,1.6795,1.6774,1.6761,1.6835,1.6794,1.6832,1.6891,1.6905,1.6915,1.6924,1.6952,1.6963,1.6837,1.6837,1.6837,0,1.7096,1.7091,1.7037,1.7041,1.703,1.6963,1.6979,1.6959,1.6922,1.6915,1.6887,1.6865,1.6837,1.6849,1.6868,1.6858,1.6862,1.6838,1.6918,1.6926,1.6934,1.696,1.6971,1.6842,1.6842,1.6841,1.6841,0,1.7169,1.7166,1.7183,1.7149,1.7139,1.7149,1.7097,1.7093,1.7057,1.7025,1.703,1.6995,1.6974,1.6974,1.6939,1.6981,1.6967,1.6929,1.688,1.6953,1.6976,1.6986,1.6849,1.6848,1.6846,1.6845,0,0,1.7306,1.7242,1.7249,1.7234,1.7189,1.7187,1.7194,1.7174,1.7172,1.7148,1.7153,1.714,1.7105,1.7091,1.7053,1.7065,1.7128,1.7025,1.7023,1.7047,1.7174,1.7204,1.7217,1.7099,1.7101,1.7102,1.7177,0,1.7382,1.7391,1.7343,1.7365,1.7363,1.7299,1.7305,1.7279,1.7249,1.7242,1.7208,1.72,1.7154,1.7145,1.7154,1.7118,1.7153,1.7112,1.7105,1.7105,1.7118,1.7228,1.726,1.7333,1.7186,1.7187,1.7188,0,1.7471,1.7453,1.7476,1.7431,1.7428,1.7435,1.7413,1.7407,1.7376,1.7353,1.7337,1.7293,1.7297,1.7249,1.7255,1.7228,1.7222,1.7204,1.7206,1.7205,1.7153,1.7233,1.7354,1.7366,1.7202,1.7201,1.72,0,1.7572,1.7552,1.7564,1.7552,1.75,1.7506,1.7485,1.7451,1.7443,1.7423,1.7417,1.7398,1.7389,1.7375,1.7328,1.7297,1.7339,1.7287,1.7321,1.7323,1.7334,1.7335,1.7459,1.7327,1.7327,1.7327,1.7327,0,1.7663,1.7679,1.7608,1.7616,1.7633,1.7576,1.7594,1.7566,1.7537,1.7538,1.7481,1.7483,1.7419,1.7414,1.7376,1.7388,1.7383,1.7365,1.7355,1.7371,1.7374,1.7368,1.7363,1.733,1.7329,1.7329,1.7328,0,1.7779,1.7732,1.774,1.769,1.7678,1.7693,1.765,1.7654,1.762,1.7622,1.7619,1.7565,1.7556,1.7507,1.7486,1.7461,1.7486,1.7465,1.7497,1.7491,1.7529,1.7527,1.7655,1.767,1.7528,1.7529,1.753,0,1.7841,1.7852,1.7804,1.78,1.7782,1.7777,1.7768,1.7712,1.7705,1.7671,1.768,1.7666,1.7653,1.7641,1.76,1.7584,1.7564,1.761,1.7561,1.7577,1.7567,1.7568,1.7569,1.7621,1.7623,1.7625,1.7626,0,1.7956,1.7933,1.7922,1.7904,1.7895,1.7878,1.7857,1.7857,1.7796,1.7791,1.7781,1.7771,1.775,1.7738,1.7715,1.7692,1.765,1.7641,1.7649,1.7666,1.7685,1.7678,1.7528,1.7639,1.7638,1.7637,1.7636,1.7635,1.8048,1.8056,1.8024,1.8014,1.7992,1.7975,1.7977,1.7943,1.7934,1.7913,1.788,1.7876,1.7844,1.7809,1.779,1.7786,1.7761,1.7771,1.7774,1.7779,1.7788,1.7684,1.7781,1.7781,1.778,1.778,1.778,0,1.8163,1.8138,1.813,1.8103,1.8096,1.8056,1.8031,1.8027,1.8024,1.7998,1.7986,1.7976,1.7964,1.7922,1.7905,1.791,1.789,1.7908,1.7908,1.7904,1.781,1.7806,1.7924,1.7924,1.7924,1.7924,1.7924,1.7924,1.8221,1.8233,1.8206,1.8206,1.8181,1.8177,1.8166,1.815,1.8129,1.812,1.811,1.8082,1.805,1.8031,1.8018,1.8006,1.8004,1.8028,1.801,1.7924,1.791,1.7897,1.7893,1.8028,1.8028,1.8105,1.8105,1.8106]}]]